Time,TemperatureF,DewpointF,PressureIn,WindDirection,WindDirectionDegrees,WindSpeedMPH,WindSpeedGustMPH,Humidity,HourlyPrecipIn,Conditions,Clouds,dailyrainin,SoftwareType,DateUTC
2013-07-21 00:01:00,57.0,52.0,29.98,North,355,0.0,1.0,83,0.00,,,0.10,,2013-07-21 08:01:00,
2013-07-21 00:11:00,56.0,51.0,29.98,WNW,293,0.0,3.0,84,0.00,,,0.10,,2013-07-21 08:11:00,
2013-07-21 00:22:00,56.0,51.0,29.98,WNW,293,0.0,3.0,84,0.00,,,0.10,,2013-07-21 08:22:00,
2013-07-21 00:33:00,56.0,51.0,29.98,North,360,0.0,1.0,84,0.00,,,0.10,,2013-07-21 08:33:00,
2013-07-21 00:43:00,56.0,52.0,29.99,North,360,0.0,1.0,85,0.00,,,0.10,,2013-07-21 08:43:00,
2013-07-21 00:52:00,56.0,52.0,29.99,North,360,0.0,1.0,86,0.00,,,0.10,,2013-07-21 08:52:00,
2013-07-21 01:02:00,56.0,52.0,29.99,North,360,0.0,1.0,86,0.00,,,0.10,,2013-07-21 09:02:00,
2013-07-21 01:11:00,55.0,51.0,29.98,North,360,0.0,1.0,86,0.00,,,0.10,,2013-07-21 09:11:00,
2013-07-21 01:22:00,55.0,51.0,29.98,North,360,0.0,1.0,86,0.00,,,0.10,,2013-07-21 09:22:00,
2013-07-21 01:32:00,55.0,51.0,29.98,North,360,0.0,0.0,87,0.00,,,0.10,,2013-07-21 09:32:00,
2013-07-21 01:42:00,55.0,51.0,29.99,North,360,0.0,1.0,87,0.00,,,0.10,,2013-07-21 09:42:00,
2013-07-21 01:52:00,55.0,52.0,29.99,North,360,0.0,0.0,89,0.00,,,0.10,,2013-07-21 09:52:00,
2013-07-21 02:01:00,55.0,52.0,29.99,North,360,0.0,0.0,89,0.00,,,0.10,,2013-07-21 10:01:00,
2013-07-21 02:11:00,54.0,51.0,29.99,North,360,0.0,1.0,89,0.00,,,0.10,,2013-07-21 10:11:00,
2013-07-21 02:22:00,54.0,51.0,29.99,North,360,0.0,1.0,89,0.00,,,0.10,,2013-07-21 10:22:00,
2013-07-21 02:32:00,54.0,51.0,30.00,North,360,0.0,0.0,90,0.00,,,0.10,,2013-07-21 10:32:00,
2013-07-21 02:43:00,54.0,51.0,30.00,North,360,0.0,1.0,89,0.00,,,0.10,,2013-07-21 10:43:00,
2013-07-21 02:52:00,54.0,51.0,30.00,North,360,0.0,1.0,89,0.00,,,0.10,,2013-07-21 10:52:00,
2013-07-21 03:02:00,54.0,51.0,30.00,North,360,0.0,1.0,89,0.00,,,0.10,,2013-07-21 11:02:00,
2013-07-21 03:11:00,54.0,50.0,30.00,North,360,0.0,1.0,87,0.00,,,0.10,,2013-07-21 11:11:00,
2013-07-21 03:32:00,55.0,51.0,30.00,NE,41,0.0,4.0,87,0.00,,,0.10,,2013-07-21 11:32:00,
2013-07-21 03:43:00,54.0,51.0,30.01,NE,41,0.0,0.0,88,0.00,,,0.10,,2013-07-21 11:43:00,
2013-07-21 03:52:00,54.0,51.0,30.00,NE,41,0.0,0.0,89,0.00,,,0.10,,2013-07-21 11:52:00,
2013-07-21 04:01:00,54.0,51.0,30.00,NE,41,0.0,0.0,89,0.00,,,0.10,,2013-07-21 12:01:00,
2013-07-21 04:11:00,54.0,51.0,30.01,SE,134,0.0,3.0,89,0.00,,,0.10,,2013-07-21 12:11:00,
2013-07-21 04:22:00,54.0,51.0,30.01,SE,134,0.0,3.0,89,0.00,,,0.10,,2013-07-21 12:22:00,
2013-07-21 04:32:00,54.0,51.0,30.01,ESE,122,0.0,2.0,88,0.00,,,0.09,,2013-07-21 12:32:00,
2013-07-21 04:43:00,54.0,51.0,30.01,SSE,154,0.0,3.0,88,0.00,,,0.09,,2013-07-21 12:43:00,
2013-07-21 04:53:00,54.0,51.0,30.01,SSE,154,0.0,0.0,89,0.00,,,0.09,,2013-07-21 12:53:00,
2013-07-21 05:01:00,54.0,51.0,30.01,SSE,154,0.0,0.0,89,0.00,,,0.09,,2013-07-21 13:01:00,
2013-07-21 05:11:00,53.0,50.0,30.01,SSE,156,0.0,1.0,89,0.00,,,0.09,,2013-07-21 13:11:00,
2013-07-21 05:32:00,53.0,50.0,30.01,East,99,0.0,1.0,90,0.00,,,0.09,,2013-07-21 13:32:00,
2013-07-21 05:42:00,53.0,50.0,30.01,East,99,0.0,0.0,90,0.00,,,0.09,,2013-07-21 13:42:00,
2013-07-21 05:52:00,53.0,50.0,30.01,East,99,0.0,0.0,90,0.00,,,0.09,,2013-07-21 13:52:00,
2013-07-21 06:01:00,53.0,50.0,30.01,East,99,0.0,0.0,90,0.00,,,0.09,,2013-07-21 14:01:00,
2013-07-21 06:11:00,53.0,50.0,30.01,East,99,0.0,0.0,90,0.00,,,0.09,,2013-07-21 14:11:00,
2013-07-21 06:22:00,53.0,50.0,30.01,East,99,0.0,0.0,90,0.00,,,0.09,,2013-07-21 14:22:00,
2013-07-21 06:32:00,53.0,50.0,30.01,East,99,0.0,0.0,90,0.00,,,0.08,,2013-07-21 14:32:00,
2013-07-21 06:43:00,53.0,50.0,30.02,East,99,0.0,0.0,90,0.00,,,0.08,,2013-07-21 14:43:00,
2013-07-21 07:02:00,53.0,50.0,30.02,East,99,0.0,0.0,90,0.00,,,0.08,,2013-07-21 15:02:00,
2013-07-21 07:11:00,53.0,50.0,30.02,East,99,0.0,1.0,89,0.00,,,0.08,,2013-07-21 15:11:00,
2013-07-21 07:32:00,53.0,50.0,30.02,East,99,0.0,0.0,89,0.00,,,0.08,,2013-07-21 15:32:00,
2013-07-21 07:42:00,53.0,50.0,30.02,East,99,0.0,1.0,88,0.00,,,0.08,,2013-07-21 15:42:00,
2013-07-21 07:52:00,53.0,50.0,30.02,East,99,0.0,1.0,88,0.00,,,0.08,,2013-07-21 15:52:00,
2013-07-21 08:01:00,53.0,50.0,30.02,East,99,0.0,1.0,88,0.00,,,0.08,,2013-07-21 16:01:00,
2013-07-21 08:11:00,54.0,50.0,30.02,East,99,0.0,1.0,87,0.00,,,0.08,,2013-07-21 16:11:00,
2013-07-21 08:32:00,54.0,50.0,30.02,East,99,0.0,1.0,87,0.00,,,0.02,,2013-07-21 16:32:00,
2013-07-21 08:42:00,55.0,51.0,30.02,East,99,0.0,1.0,85,0.00,,,0.02,,2013-07-21 16:42:00,
2013-07-21 08:52:00,56.0,51.0,30.02,East,95,0.0,1.0,82,0.00,,,0.02,,2013-07-21 16:52:00,
2013-07-21 09:02:00,56.0,51.0,30.02,East,95,0.0,1.0,82,0.00,,,0.02,,2013-07-21 17:02:00,
2013-07-21 09:11:00,56.0,52.0,30.02,SE,137,0.0,1.0,85,0.00,,,0.02,,2013-07-21 17:11:00,
2013-07-21 09:22:00,56.0,52.0,30.02,SE,137,0.0,1.0,85,0.00,,,0.02,,2013-07-21 17:22:00,
2013-07-21 09:33:00,56.0,51.0,30.02,WSW,240,0.0,2.0,83,0.00,,,0.01,,2013-07-21 17:33:00,
2013-07-21 09:42:00,56.0,51.0,30.02,East,80,0.0,4.0,83,0.00,,,0.01,,2013-07-21 17:42:00,
2013-07-21 09:53:00,56.0,51.0,30.02,East,80,0.0,4.0,83,0.00,,,0.01,,2013-07-21 17:53:00,
2013-07-21 10:01:00,57.0,51.0,30.02,East,84,0.0,7.0,81,0.00,,,0.01,,2013-07-21 18:01:00,
2013-07-21 10:11:00,57.0,51.0,30.02,East,84,0.0,2.0,80,0.00,,,0.01,,2013-07-21 18:11:00,
2013-07-21 10:21:00,57.0,51.0,30.02,East,84,0.0,2.0,80,0.00,,,0.01,,2013-07-21 18:21:00,
2013-07-21 10:32:00,58.0,51.0,30.02,ESE,122,0.0,2.0,78,0.00,,,0.01,,2013-07-21 18:32:00,
2013-07-21 10:43:00,58.0,52.0,30.02,NE,35,0.0,2.0,79,0.00,,,0.01,,2013-07-21 18:43:00,
2013-07-21 10:52:00,58.0,52.0,30.02,NE,35,0.0,2.0,79,0.00,,,0.01,,2013-07-21 18:52:00,
2013-07-21 11:01:00,58.0,52.0,30.02,NE,40,0.0,2.0,80,0.00,,,0.01,,2013-07-21 19:01:00,
2013-07-21 11:11:00,59.0,51.0,30.02,NNE,32,0.0,2.0,75,0.00,,,0.01,,2013-07-21 19:11:00,
2013-07-21 11:22:00,59.0,51.0,30.02,NNE,32,0.0,2.0,75,0.00,,,0.01,,2013-07-21 19:22:00,
2013-07-21 11:32:00,59.0,51.0,30.03,South,180,0.0,5.0,76,0.00,,,0.01,,2013-07-21 19:32:00,
2013-07-21 11:42:00,59.0,51.0,30.02,East,95,1.0,10.0,76,0.00,,,0.01,,2013-07-21 19:42:00,
2013-07-21 11:52:00,59.0,52.0,30.02,NNE,21,0.0,3.0,77,0.00,,,0.01,,2013-07-21 19:52:00,
2013-07-21 12:01:00,59.0,52.0,30.02,NNE,21,0.0,3.0,77,0.00,,,0.01,,2013-07-21 20:01:00,
2013-07-21 12:11:00,61.0,53.0,30.02,ENE,77,2.0,7.0,75,0.00,,,0.01,,2013-07-21 20:11:00,
2013-07-21 12:32:00,61.0,53.0,30.02,NNE,26,1.0,8.0,76,0.00,,,0.01,,2013-07-21 20:32:00,
2013-07-21 12:42:00,62.0,52.0,30.02,East,91,0.0,4.0,70,0.00,,,0.01,,2013-07-21 20:42:00,
2013-07-21 12:52:00,63.0,53.0,30.02,East,90,2.0,7.0,70,0.00,,,0.01,,2013-07-21 20:52:00,
2013-07-21 13:01:00,63.0,53.0,30.02,East,90,2.0,7.0,70,0.00,,,0.01,,2013-07-21 21:01:00,
2013-07-21 13:11:00,63.0,52.0,30.02,West,269,2.0,6.0,68,0.00,,,0.01,,2013-07-21 21:11:00,
2013-07-21 13:22:00,63.0,52.0,30.02,West,269,2.0,6.0,68,0.00,,,0.01,,2013-07-21 21:22:00,
2013-07-21 13:32:00,63.0,53.0,30.02,SSE,163,0.0,5.0,69,0.00,,,0.01,,2013-07-21 21:32:00,
2013-07-21 13:43:00,63.0,52.0,30.02,West,271,0.0,1.0,67,0.00,,,0.01,,2013-07-21 21:43:00,
2013-07-21 13:52:00,62.0,51.0,30.01,NW,323,0.0,2.0,68,0.00,,,0.01,,2013-07-21 21:52:00,
2013-07-21 14:01:00,62.0,51.0,30.01,NW,323,0.0,2.0,68,0.00,,,0.01,,2013-07-21 22:01:00,
2013-07-21 14:11:00,62.0,51.0,30.01,NW,323,0.0,2.0,68,0.00,,,0.01,,2013-07-21 22:11:00,
2013-07-21 14:22:00,62.0,51.0,30.01,NW,323,0.0,2.0,68,0.00,,,0.01,,2013-07-21 22:22:00,
2013-07-21 14:32:00,62.0,52.0,30.01,ESE,121,1.0,4.0,69,0.00,,,0.01,,2013-07-21 22:32:00,
2013-07-21 14:42:00,62.0,51.0,30.01,WNW,300,0.0,2.0,67,0.00,,,0.01,,2013-07-21 22:42:00,
2013-07-21 14:52:00,61.0,52.0,30.01,WNW,299,0.0,2.0,72,0.00,,,0.01,,2013-07-21 22:52:00,
2013-07-21 15:01:00,61.0,52.0,30.01,WNW,299,0.0,2.0,72,0.00,,,0.01,,2013-07-21 23:01:00,
2013-07-21 15:11:00,61.0,53.0,30.01,WNW,299,0.0,1.0,76,0.00,,,0.01,,2013-07-21 23:11:00,
2013-07-21 15:22:00,61.0,53.0,30.01,WNW,299,0.0,1.0,76,0.00,,,0.01,,2013-07-21 23:22:00,
2013-07-21 15:32:00,62.0,52.0,30.01,WNW,299,0.0,2.0,71,0.00,,,0.01,,2013-07-21 23:32:00,
2013-07-21 15:42:00,63.0,53.0,30.01,WNW,299,0.0,1.0,71,0.00,,,0.01,,2013-07-21 23:42:00,
2013-07-21 15:52:00,63.0,51.0,30.01,WNW,299,0.0,1.0,66,0.00,,,0.01,,2013-07-21 23:52:00,
2013-07-21 16:01:00,63.0,51.0,30.01,WNW,299,0.0,1.0,66,0.00,,,0.01,,2013-07-22 00:01:00,
2013-07-21 16:11:00,64.0,54.0,30.01,WNW,297,0.0,1.0,70,0.00,,,0.01,,2013-07-22 00:11:00,
2013-07-21 16:22:00,64.0,52.0,30.01,WNW,296,0.0,2.0,65,0.00,,,0.01,,2013-07-22 00:22:00,
2013-07-21 16:32:00,64.0,52.0,30.01,WNW,296,0.0,2.0,65,0.00,,,0.01,,2013-07-22 00:32:00,
2013-07-21 16:42:00,64.0,52.0,30.01,WNW,297,0.0,1.0,66,0.00,,,0.01,,2013-07-22 00:42:00,
2013-07-21 16:52:00,64.0,52.0,30.01,WNW,297,0.0,1.0,66,0.00,,,0.01,,2013-07-22 00:52:00,
2013-07-21 17:02:00,63.0,50.0,30.02,WNW,297,0.0,2.0,62,0.00,,,0.01,,2013-07-22 01:02:00,
2013-07-21 17:11:00,63.0,51.0,30.01,WNW,297,0.0,1.0,64,0.00,,,0.01,,2013-07-22 01:11:00,
2013-07-21 17:32:00,63.0,50.0,30.01,NNW,331,0.0,3.0,63,0.00,,,0.01,,2013-07-22 01:32:00,
2013-07-21 17:42:00,63.0,51.0,30.01,NNW,331,0.0,2.0,65,0.00,,,0.01,,2013-07-22 01:42:00,
2013-07-21 18:01:00,63.0,53.0,30.01,NNW,331,0.0,1.0,70,0.00,,,0.01,,2013-07-22 02:01:00,
2013-07-21 18:11:00,63.0,51.0,30.01,West,271,0.0,1.0,65,0.00,,,0.01,,2013-07-22 02:11:00,
2013-07-21 18:32:00,63.0,51.0,30.01,WNW,292,0.0,3.0,64,0.00,,,0.00,,2013-07-22 02:32:00,
2013-07-21 18:43:00,64.0,52.0,30.01,WNW,292,0.0,3.0,66,0.00,,,0.00,,2013-07-22 02:43:00,
2013-07-21 19:01:00,64.0,51.0,30.01,West,278,0.0,4.0,63,0.00,,,0.00,,2013-07-22 03:01:00,
2013-07-21 19:11:00,63.0,52.0,30.01,West,278,0.0,1.0,67,0.00,,,0.00,,2013-07-22 03:11:00,
2013-07-21 19:22:00,63.0,52.0,30.01,West,278,0.0,1.0,67,0.00,,,0.00,,2013-07-22 03:22:00,
2013-07-21 19:33:00,62.0,51.0,30.01,West,278,0.0,1.0,66,0.00,,,0.00,,2013-07-22 03:33:00,
2013-07-21 19:43:00,61.0,51.0,30.01,West,277,0.0,1.0,69,0.00,,,0.00,,2013-07-22 03:43:00,
2013-07-21 20:01:00,62.0,52.0,30.01,West,277,0.0,2.0,69,0.00,,,0.00,,2013-07-22 04:01:00,
2013-07-21 20:22:00,63.0,52.0,30.01,WNW,299,0.0,2.0,67,0.00,,,0.00,,2013-07-22 04:22:00,
2013-07-21 20:33:00,63.0,51.0,30.01,West,274,0.0,2.0,66,0.00,,,0.00,,2013-07-22 04:33:00,
2013-07-21 20:42:00,63.0,51.0,30.01,NNW,334,0.0,3.0,66,0.00,,,0.00,,2013-07-22 04:42:00,
2013-07-21 21:01:00,62.0,51.0,30.01,NNW,334,0.0,2.0,68,0.00,,,0.00,,2013-07-22 05:01:00,
2013-07-21 21:11:00,62.0,51.0,30.01,NNW,334,0.0,2.0,68,0.00,,,0.00,,2013-07-22 05:11:00,
2013-07-21 21:22:00,61.0,50.0,30.01,NW,318,0.0,0.0,68,0.00,,,0.00,,2013-07-22 05:22:00,
2013-07-21 21:32:00,61.0,51.0,30.02,NW,318,0.0,0.0,69,0.00,,,0.00,,2013-07-22 05:32:00,
2013-07-21 21:42:00,60.0,51.0,30.02,NW,318,0.0,0.0,71,0.00,,,0.00,,2013-07-22 05:42:00,
2013-07-21 21:52:00,60.0,51.0,30.02,NW,318,0.0,0.0,71,0.00,,,0.00,,2013-07-22 05:52:00,
2013-07-21 22:01:00,60.0,51.0,30.02,NW,318,0.0,0.0,71,0.00,,,0.00,,2013-07-22 06:01:00,
2013-07-21 22:11:00,60.0,51.0,30.02,NW,318,0.0,0.0,71,0.00,,,0.00,,2013-07-22 06:11:00,
2013-07-21 22:21:00,60.0,51.0,30.02,NW,318,0.0,0.0,72,0.00,,,0.00,,2013-07-22 06:21:00,
2013-07-21 22:32:00,59.0,50.0,30.03,NW,318,0.0,0.0,73,0.00,,,0.00,,2013-07-22 06:32:00,
2013-07-21 22:52:00,59.0,51.0,30.03,NW,318,0.0,0.0,74,0.00,,,0.00,,2013-07-22 06:52:00,
2013-07-21 23:01:00,59.0,51.0,30.03,NW,318,0.0,0.0,75,0.00,,,0.00,,2013-07-22 07:01:00,
2013-07-21 23:11:00,59.0,51.0,30.03,NW,318,0.0,0.0,75,0.00,,,0.00,,2013-07-22 07:11:00,
2013-07-21 23:22:00,58.0,51.0,30.04,NW,318,0.0,0.0,78,0.00,,,0.00,,2013-07-22 07:22:00,
2013-07-21 23:33:00,57.0,51.0,30.04,NW,318,0.0,0.0,80,0.00,,,0.00,,2013-07-22 07:33:00,
2013-07-21 23:43:00,56.0,51.0,30.05,NW,318,0.0,0.0,83,0.00,,,0.00,,2013-07-22 07:43:00,
2013-07-21 23:52:00,56.0,51.0,30.05,NW,318,0.0,0.0,83,0.00,,,0.00,,2013-07-22 07:52:00,